DW4782 Asprovalta GR current weather conditions

sailwx.info

Wind from 224 at 0 knots gusting 6

Air temperature 23.3° C
Dewpoint 15.4° C

Last reported at 2015-Aug-30 21:50 UTC.
Time now 2015-Aug-30 22:32 UTC

Location: N 40°43' E 023°43'.
View on Google Maps.

See reports from other nearby stations

  
Tides and Currents Weather Stations Pressure Air Temp Water Temp Dewpoint Dewpoint Depression Visibility Wind Speed Wind Dir Waves Ship Positions
date/time (UTC)wind fromknots sea level pressurealtimeterstation pressurevisibilityair tempwater tempwave heightnotes
2015-Aug-30 21:50 224 0 gusting 6 23.3
2015-Aug-30 21:40 23.3
2015-Aug-30 21:30 23.3
2015-Aug-30 21:10 24.4
2015-Aug-30 20:50 265 25.0
2015-Aug-30 20:40 252 0 gusting 2 25.6
2015-Aug-30 20:30 270 25.6
2015-Aug-30 20:20 26.1
2015-Aug-30 20:10 280 0 gusting 2 26.1
2015-Aug-30 20:00 255 0 gusting 1 26.7
2015-Aug-30 19:50 257 0 gusting 1 26.7
2015-Aug-30 19:40 255 1 gusting 3 26.7
2015-Aug-30 19:30 249 1 gusting 4 27.2
2015-Aug-30 19:20 260 1 gusting 3 27.2
2015-Aug-30 19:10 265 1 gusting 2 27.2
2015-Aug-30 19:00 246 1 gusting 2 27.2
2015-Aug-30 18:50 261 1 gusting 2 27.2
2015-Aug-30 18:40 254 1 gusting 2 27.2
2015-Aug-30 18:30 262 1 gusting 2 27.2
2015-Aug-30 18:20 268 1 gusting 3 27.2
2015-Aug-30 18:00 262 1 gusting 3 27.8
2015-Aug-30 17:50 267 2 gusting 4 27.8
2015-Aug-30 17:40 250 1 gusting 4 27.8
2015-Aug-30 17:30 257 1 gusting 3 28.3
2015-Aug-30 17:20 282 1 gusting 4 28.3
2015-Aug-30 17:10 275 1 gusting 2 28.3
2015-Aug-30 17:00 285 0 gusting 2 28.3
2015-Aug-30 16:50 263 28.3
2015-Aug-30 16:40 28.9
2015-Aug-30 16:30 29.4
2015-Aug-30 16:20 015 30.0
2015-Aug-30 16:10 078 30.0
2015-Aug-30 16:00 078 30.0
2015-Aug-30 15:50 078 30.6
2015-Aug-30 15:40 080 30.6
2015-Aug-30 15:30 039 30.6
2015-Aug-30 15:20 026 0 gusting 2 30.6
2015-Aug-30 15:10 032 0 gusting 3 30.6
2015-Aug-30 15:00 111 2 gusting 5 30.6
2015-Aug-30 14:50 013 2 gusting 8 31.1
2015-Aug-30 14:40 042 1 gusting 5 31.7
2015-Aug-30 14:30 107 0 gusting 4 33.3
2015-Aug-30 14:20 117 1 gusting 3 33.9
2015-Aug-30 14:10 095 0 gusting 2 33.9
2015-Aug-30 14:00 089 0 gusting 5 34.4
2015-Aug-30 13:50 100 0 gusting 2 35.0
2015-Aug-30 13:40 127 0 gusting 2 34.4
2015-Aug-30 13:30 146 0 gusting 2 34.4
2015-Aug-30 13:20 115 1 gusting 4 33.9
2015-Aug-30 13:10 096 1 gusting 3 34.4
2015-Aug-30 13:00 119 1 gusting 4 34.4
2015-Aug-30 12:50 121 1 gusting 4 34.4
2015-Aug-30 12:40 131 1 gusting 3 35.0
2015-Aug-30 12:30 118 1 gusting 2 35.0
2015-Aug-30 12:10 128 1 gusting 4 34.4
2015-Aug-30 11:50 141 1 gusting 4 35.6
2015-Aug-30 11:40 127 2 gusting 7 35.0
2015-Aug-30 11:30 135 1 gusting 2 35.0
2015-Aug-30 11:20 145 1 gusting 4 35.0
2015-Aug-30 11:10 115 2 gusting 5 35.0
2015-Aug-30 11:00 119 1 gusting 4 35.6
2015-Aug-30 10:50 102 0 gusting 2 35.6
2015-Aug-30 10:40 125 0 gusting 4 35.0
2015-Aug-30 10:30 141 0 gusting 1 35.0
2015-Aug-30 10:20 115 0 gusting 2 35.0
2015-Aug-30 10:10 130 0 gusting 2 34.4
2015-Aug-30 10:00 102 34.4
2015-Aug-30 09:50 116 1 gusting 4 33.9
2015-Aug-30 09:40 093 0 gusting 3 34.4
2015-Aug-30 09:30 110 0 gusting 1 33.9
2015-Aug-30 09:20 078 0 gusting 2 33.9
2015-Aug-30 09:10 081 0 gusting 4 33.3
2015-Aug-30 09:00 122 0 gusting 0 32.8
2015-Aug-30 08:50 139 0 gusting 3 32.8
2015-Aug-30 08:40 166 0 gusting 1 32.2
2015-Aug-30 08:30 174 0 gusting 2 32.2
2015-Aug-30 08:20 136 0 gusting 1 31.7
2015-Aug-30 08:10 203 2 gusting 4 31.7
2015-Aug-30 08:00 173 0 gusting 4 31.7
2015-Aug-30 07:50 190 0 gusting 4 31.1
2015-Aug-30 07:40 201 0 gusting 3 31.1
2015-Aug-30 07:30 144 0 gusting 1 31.1
2015-Aug-30 07:20 193 0 gusting 4 30.6
2015-Aug-30 07:10 185 0 gusting 3 30.6
2015-Aug-30 07:00 194 0 gusting 4 30.0
2015-Aug-30 06:50 158 29.4
2015-Aug-30 06:40 188 29.4
2015-Aug-30 06:30 062 28.3
2015-Aug-30 06:10 26.7
2015-Aug-30 06:00 077 26.7
2015-Aug-30 05:50 049 0 gusting 1 25.6
2015-Aug-30 05:40 066 25.6
2015-Aug-30 05:30 163 24.4
2015-Aug-30 05:20 163 23.9
2015-Aug-30 05:10 230 22.8
2015-Aug-30 05:00 242 21.7
2015-Aug-30 04:50 338 20.6
2015-Aug-30 04:40 20.0
2015-Aug-30 04:30 023 0 gusting 1 19.4
2015-Aug-30 04:20 047 0 gusting 1 19.4
2015-Aug-30 04:10 304 0 gusting 3 19.4
2015-Aug-30 04:00 015 19.4
2015-Aug-30 03:50 358 19.4
2015-Aug-30 03:40 276 19.4
2015-Aug-30 03:30 19.4
2015-Aug-30 03:20 276 19.4
2015-Aug-30 03:10 19.4
2015-Aug-30 03:00 276 19.4
2015-Aug-30 02:50 276 19.4
2015-Aug-30 02:40 270 19.4
2015-Aug-30 02:20 281 18.9
2015-Aug-30 02:10 015 18.9
2015-Aug-30 02:00 19.4
2015-Aug-30 01:50 19.4
2015-Aug-30 01:40 19.4
2015-Aug-30 01:30 016 19.4
2015-Aug-30 01:20 19.4
2015-Aug-30 01:10 19.4
2015-Aug-30 01:00 015 19.4
2015-Aug-30 00:50 016 20.0
2015-Aug-30 00:40 20.0
2015-Aug-30 00:30 278 20.0
2015-Aug-30 00:20 259 0 gusting 1 20.0
2015-Aug-30 00:10 20.0
2015-Aug-30 00:00 20.0
2015-Aug-29 23:50 257 20.6
2015-Aug-29 23:40 20.6
2015-Aug-29 23:30 21.1
2015-Aug-29 23:20 21.7
2015-Aug-29 23:10 21.7
2015-Aug-29 23:00 257 22.2
2015-Aug-29 22:50 256 22.8
2015-Aug-29 22:40 256 23.3
2015-Aug-29 22:30 23.3
2015-Aug-29 22:20 23.9
2015-Aug-29 22:10 24.4
2015-Aug-29 22:00 257 0 gusting 0 24.4
2015-Aug-29 21:50 278 0 gusting 2 24.4
2015-Aug-29 21:40 235 1 gusting 3 23.9
2015-Aug-29 21:30 230 2 gusting 3 23.9
2015-Aug-29 21:20 232 2 gusting 4 23.3
2015-Aug-29 21:10 254 0 gusting 4 22.8
2015-Aug-29 21:00 266 22.8
2015-Aug-29 20:50 23.3
2015-Aug-29 20:40 266 23.9
2015-Aug-29 20:30 24.4
2015-Aug-29 20:20 25.0
2015-Aug-29 20:10 25.6
2015-Aug-29 20:00 266 25.6
2015-Aug-29 19:50 266 0 gusting 0 26.1
2015-Aug-29 19:40 270 2 gusting 2 25.6
2015-Aug-29 19:30 265 2 gusting 5 25.6
2015-Aug-29 19:20 246 2 gusting 4 25.0
2015-Aug-29 19:10 258 1 gusting 3 25.0
2015-Aug-29 19:00 267 1 gusting 2 25.0
2015-Aug-29 18:50 270 1 gusting 4 24.4
2015-Aug-29 18:40 283 24.4
2015-Aug-29 18:30 283 24.4
2015-Aug-29 18:20 283 25.0
2015-Aug-29 18:10 25.6
2015-Aug-29 18:00 26.1
2015-Aug-29 17:50 263 1 gusting 3 26.7
2015-Aug-29 17:40 300 1 gusting 2 27.2
2015-Aug-29 17:30 261 2 gusting 3 27.2
2015-Aug-29 17:20 263 1 gusting 5 27.2
2015-Aug-29 17:10 258 2 gusting 4 27.2
2015-Aug-29 17:00 269 2 gusting 5 27.8
2015-Aug-29 16:50 262 2 gusting 5 28.3
2015-Aug-29 16:40 263 2 gusting 5 28.3
2015-Aug-29 16:30 259 1 gusting 4 28.9
2015-Aug-29 16:20 273 0 gusting 3 29.4
2015-Aug-29 16:10 255 1 gusting 2 30.0
2015-Aug-29 16:00 270 0 gusting 4 30.6
2015-Aug-29 15:50 273 0 gusting 2 31.7
2015-Aug-29 15:40 084 31.7
2015-Aug-29 15:30 32.2
2015-Aug-29 15:20 110 32.2
2015-Aug-29 15:10 105 32.2
2015-Aug-29 15:00 104 32.2
2015-Aug-29 14:50 104 32.2
2015-Aug-29 14:40 114 32.8
2015-Aug-29 14:30 047 32.8
2015-Aug-29 14:20 040 0 gusting 1 32.8
2015-Aug-29 14:10 080 32.8
2015-Aug-29 14:00 080 32.8
2015-Aug-29 13:50 110 0 gusting 2 32.2
2015-Aug-29 13:40 179 0 gusting 3 32.2
2015-Aug-29 13:30 111 0 gusting 3 32.8
2015-Aug-29 13:20 104 0 gusting 2 32.8
2015-Aug-29 13:10 138 0 gusting 1 32.8
2015-Aug-29 13:00 118 0 gusting 6 32.8
2015-Aug-29 12:50 142 0 gusting 2 32.8
2015-Aug-29 12:40 134 0 gusting 1 32.8
2015-Aug-29 12:30 139 0 gusting 4 33.3
2015-Aug-29 12:20 143 0 gusting 2 32.8
2015-Aug-29 12:10 105 0 gusting 6 32.8
2015-Aug-29 12:00 104 0 gusting 4 32.2
2015-Aug-29 11:50 139 0 gusting 1 32.2
2015-Aug-29 11:40 168 0 gusting 1 32.2
2015-Aug-29 11:30 133 0 gusting 1 32.2
2015-Aug-29 11:20 118 0 gusting 4 32.2
2015-Aug-29 11:10 146 32.2
2015-Aug-29 11:00 138 0 gusting 0 31.7
2015-Aug-29 10:50 109 0 gusting 4 31.7
2015-Aug-29 10:40 099 0 gusting 3 31.7
2015-Aug-29 10:30 131 0 gusting 1 31.1
2015-Aug-29 10:20 096 0 gusting 4 30.6
2015-Aug-29 10:10 105 0 gusting 3 30.6
2015-Aug-29 10:00 120 1 gusting 2 30.6
2015-Aug-29 09:50 092 0 gusting 4 30.6
2015-Aug-29 09:40 102 0 gusting 2 30.0
2015-Aug-29 09:30 116 0 gusting 2 30.0
2015-Aug-29 09:20 113 0 gusting 2 29.4
2015-Aug-29 09:10 092 1 gusting 3 29.4
2015-Aug-29 09:00 105 0 gusting 2 28.9
2015-Aug-29 08:50 106 0 gusting 2 28.9
2015-Aug-29 08:40 110 0 gusting 2 28.9
2015-Aug-29 08:30 085 0 gusting 4 28.3
2015-Aug-29 08:20 106 0 gusting 2 28.9
2015-Aug-29 08:10 116 0 gusting 2 28.3
2015-Aug-29 08:00 129 0 gusting 2 28.3
2015-Aug-29 07:50 117 0 gusting 1 28.3
2015-Aug-29 07:40 111 28.3
2015-Aug-29 07:30 117 0 gusting 1 27.8
2015-Aug-29 07:20 114 0 gusting 1 27.8
2015-Aug-29 07:10 098 0 gusting 2 27.8
2015-Aug-29 07:00 085 0 gusting 2 27.8
2015-Aug-29 06:50 122 27.2
2015-Aug-29 06:40 120 26.7
2015-Aug-29 06:30 169 26.1
2015-Aug-29 06:20 169 25.6
2015-Aug-29 06:10 169 25.6
2015-Aug-29 06:00 169 25.0
2015-Aug-29 05:50 169 24.4
2015-Aug-29 05:40 24.4
2015-Aug-29 05:30 23.3
2015-Aug-29 05:20 22.2
2015-Aug-29 05:10 20.0
2015-Aug-29 05:00 18.9
2015-Aug-29 04:50 18.3
2015-Aug-29 04:40 17.8
2015-Aug-29 04:30 267 17.8
2015-Aug-29 04:20 17.8
2015-Aug-29 04:10 267 17.2
2015-Aug-29 04:00 260 17.2
2015-Aug-29 03:50 260 0 gusting 1 17.8
2015-Aug-29 03:40 260 17.8
2015-Aug-29 03:30 260 18.3
2015-Aug-29 03:20 18.3
2015-Aug-29 03:10 18.3
2015-Aug-29 03:00 18.9
2015-Aug-29 02:50 19.4
2015-Aug-29 02:40 257 19.4
2015-Aug-29 02:30 20.0
2015-Aug-29 02:20 20.0
2015-Aug-29 02:10 295 20.6
2015-Aug-29 02:00 295 0 gusting 0 20.0
2015-Aug-29 01:50 256 1 gusting 3 20.0
2015-Aug-29 01:40 265 0 gusting 2 20.0
2015-Aug-29 01:30 255 20.0
2015-Aug-29 01:10 20.6
2015-Aug-29 01:00 316 20.6
2015-Aug-29 00:50 324 20.6
2015-Aug-29 00:40 333 0 gusting 2 20.6
2015-Aug-29 00:30 013 20.6
2015-Aug-29 00:20 20.6
2015-Aug-29 00:10 012 20.6
2015-Aug-29 00:00 235 20.0
2015-Aug-28 23:50 250 0 gusting 4 20.0
2015-Aug-28 23:40 316 19.4
2015-Aug-28 23:30 318 19.4
2015-Aug-28 23:20 307 19.4
2015-Aug-28 23:10 258 20.0
2015-Aug-28 23:00 257 20.0
2015-Aug-28 22:50 20.6
2015-Aug-28 22:40 20.6
2015-Aug-28 22:30 20.6
2015-Aug-28 22:20 257 20.6
2015-Aug-28 22:10 20.6
2015-Aug-28 22:00 260 0 gusting 1 20.6